Tracking 19145 objects as of 25-Apr-2018
HD Live streaming from Space Station
objects crossing your sky now

FENGYUN 1C DEB

Track FENGYUN 1C DEB now!
10-day predictions


NORAD ID: 31481
Int'l Code: 1999-025BVV
Perigee: 635.5 km
Apogee: 717.4 km
Inclination: 99.2 °
Period: 98.1 minutes
Semi major axis: 7047 km
RCS: 0.0112 m2 (small)
Launch date: May 10, 1999
Source: People's Republic of China (PRC)
Launch site: Taiyaun Space Center, China (TSC)

Note: This is SATELLITE DEBRIS
aabbcc
Your satellite tracking list
Your tracking list is empty




NASA's NSSDC Master Catalog

Two Line Element Set (TLE):
1 31481U 99025BVV 18114.61782929  .00002860  00000-0  50367-3 0  9991
2 31481  99.2400 154.6573 0058089 124.6406 236.0290 14.67427202581547
Source of the keplerian elements: AFSPC